,,,PA_Meas_PMT16A,,PR_Meas_QMR101_102,,RH_Meas_QMH101,,SR_Meas_QMS101,,TA_Meas_QMH101,,GenWind,,GenWind,
date,time,status,PA,status,PR,status,RH,status,SR,status,TA,status,DirAvg,status,SpdAvg,
2012-08-17, 00:00:04,VALID,1000.41,VALID,0,VALID,87.4126,VALID,0,VALID,22.2576,VALID,20,VALID,0.00390625,
2012-08-17, 00:01:04,VALID,1000.38,VALID,0,VALID,87.5117,VALID,0,VALID,22.199,VALID,20,VALID,0.0410156,
2012-08-17, 00:02:04,VALID,1000.35,VALID,0,VALID,88.0992,VALID,0,VALID,22.1795,VALID,20,VALID,0.418359,
2012-08-17, 00:03:04,VALID,1000.42,VALID,0,VALID,88.351,VALID,0,VALID,22.199,VALID,20,VALID,0.204688,
2012-08-17, 00:04:04,VALID,1000.43,VALID,0,VALID,88.1679,VALID,0,VALID,22.1795,VALID,20,VALID,0.0753906,
2012-08-17, 00:05:04,VALID,1000.45,VALID,0,VALID,88.2747,VALID,0,VALID,22.16,VALID,20,VALID,0.251563,
2012-08-17, 00:06:04,VALID,1000.43,VALID,0,VALID,88.6104,VALID,0,VALID,22.1795,VALID,20,VALID,0.465625,
2012-08-17, 00:07:04,VALID,1000.41,VALID,0,VALID,88.3281,VALID,0,VALID,22.199,VALID,20,VALID,0.515625,
2012-08-17, 00:08:04,VALID,1000.42,VALID,0,VALID,87.7788,VALID,0,VALID,22.2007,VALID,20,VALID,0.194531,
2012-08-17, 00:09:04,VALID,1000.4,VALID,0,VALID,87.4889,VALID,0,VALID,22.1812,VALID,20,VALID,0.05625,
2012-08-17, 00:10:04,VALID,1000.4,VALID,0,VALID,88,VALID,0,VALID,22.1812,VALID,20,VALID,0.175,
2012-08-17, 00:11:04,VALID,1000.4,VALID,0,VALID,88.1297,VALID,0,VALID,22.199,VALID,20,VALID,0.174219,
2012-08-17, 00:12:04,VALID,1000.36,VALID,0,VALID,88.1755,VALID,0,VALID,22.2576,VALID,20,VALID,0.526563,
2012-08-17, 00:13:04,VALID,1000.41,VALID,0,VALID,88.0153,VALID,0,VALID,22.2771,VALID,20,VALID,0.296875,
2012-08-17, 00:14:04,VALID,1000.39,VALID,0,VALID,87.9085,VALID,0,VALID,22.3161,VALID,20,VALID,0.105469,
2012-08-17, 00:15:04,VALID,1000.33,VALID,0,VALID,87.4126,VALID,0,VALID,22.2966,VALID,20,VALID,0.423438,
2012-08-17, 00:16:04,VALID,1000.29,VALID,0,VALID,87.3057,VALID,0,VALID,22.2966,VALID,20,VALID,0.205078,
2012-08-17, 00:17:04,VALID,1000.23,VALID,0,VALID,87.382,VALID,0,VALID,22.3178,VALID,20,VALID,0.508594,
2012-08-17, 00:18:04,VALID,1000.24,VALID,0,VALID,87.672,VALID,0,VALID,22.3356,VALID,293,VALID,0.853125,
2012-08-17, 00:19:04,VALID,1000.22,VALID,0,VALID,87.5499,VALID,0,VALID,22.3958,VALID,293,VALID,0.220313,
2012-08-17, 00:20:04,VALID,1000.21,VALID,0,VALID,87.382,VALID,0,VALID,22.3941,VALID,293,VALID,0,
2012-08-17, 00:21:04,VALID,1000.22,VALID,0,VALID,87.2752,VALID,0,VALID,22.4348,VALID,293,VALID,0.200391,
2012-08-17, 00:22:04,VALID,1000.17,VALID,0,VALID,86.9014,VALID,0,VALID,22.4526,VALID,293,VALID,0.0566406,
2012-08-17, 00:23:04,VALID,1000.16,VALID,0,VALID,86.4589,VALID,0,VALID,22.4348,VALID,293,VALID,0,
2012-08-17, 00:24:04,VALID,1000.12,VALID,0,VALID,86.8785,VALID,0,VALID,22.4543,VALID,293,VALID,0.464063,
2012-08-17, 00:25:04,VALID,1000.13,VALID,0,VALID,86.7411,VALID,0,VALID,22.5128,VALID,293,VALID,0.365234,
2012-08-17, 00:26:04,VALID,1000.08,VALID,0,VALID,86.5428,VALID,0,VALID,22.4916,VALID,293,VALID,0.0265625,
2012-08-17, 00:27:04,VALID,1000.1,VALID,0,VALID,86.2529,VALID,0,VALID,22.4721,VALID,293,VALID,0,
2012-08-17, 00:28:04,VALID,1000.07,VALID,0,VALID,86.2757,VALID,0,VALID,22.4331,VALID,199,VALID,0.492969,
2012-08-17, 00:29:04,VALID,1000.05,VALID,0,VALID,86.6725,VALID,0,VALID,22.5128,VALID,159,VALID,1.39102,
2012-08-17, 00:30:04,VALID,1000.02,VALID,0,VALID,85.322,VALID,0,VALID,22.7469,VALID,160,VALID,1.16602,
2012-08-17, 00:31:04,VALID,1000.01,VALID,0,VALID,83.6435,VALID,0,VALID,22.8818,VALID,160,VALID,1.02539,
2012-08-17, 00:32:04,VALID,1000,VALID,0,VALID,82.4228,VALID,0,VALID,23.0201,VALID,151,VALID,1.31484,
2012-08-17, 00:33:04,VALID,999.966,VALID,0,VALID,81.2402,VALID,0,VALID,23.1939,VALID,167,VALID,1.31328,
2012-08-17, 00:34:04,VALID,999.968,VALID,0,VALID,80.0805,VALID,0,VALID,23.3713,VALID,170,VALID,0.775391,
2012-08-17, 00:35:04,VALID,999.954,VALID,0,VALID,79.0429,VALID,0,VALID,23.4884,VALID,142,VALID,1.48008,
2012-08-17, 00:36:04,VALID,999.94,VALID,0,VALID,77.9976,VALID,0,VALID,23.6232,VALID,130,VALID,1.91797,
2012-08-17, 00:37:04,VALID,999.942,VALID,0,VALID,76.8837,VALID,0,VALID,23.8183,VALID,126,VALID,2.59336,
2012-08-17, 00:38:04,VALID,999.9,VALID,0,VALID,76.2046,VALID,0,VALID,23.9354,VALID,129,VALID,2.36211,
2012-08-17, 00:39:04,VALID,999.881,VALID,0,VALID,75.8842,VALID,0,VALID,23.9939,VALID,122,VALID,2.3668,
2012-08-17, 00:40:04,VALID,999.869,VALID,0,VALID,75.7469,VALID,0,VALID,23.9762,VALID,134,VALID,1.64336,
2012-08-17, 00:41:04,VALID,999.824,VALID,0,VALID,75.0068,VALID,0,VALID,24.0348,VALID,136,VALID,2.47578,
2012-08-17, 00:42:04,VALID,999.8,VALID,0,VALID,74.7474,VALID,0,VALID,24.1305,VALID,136,VALID,1.94453,
2012-08-17, 00:43:04,VALID,999.749,VALID,0,VALID,74.8161,VALID,0,VALID,24.0915,VALID,126,VALID,1.92773,
2012-08-17, 00:44:04,VALID,999.726,VALID,0,VALID,74.9915,VALID,0,VALID,24.0738,VALID,123,VALID,1.53594,
2012-08-17, 00:45:04,VALID,999.709,VALID,0,VALID,75.0678,VALID,0,VALID,24.0134,VALID,124,VALID,1.49141,
2012-08-17, 00:46:04,VALID,999.737,VALID,0,VALID,75.373,VALID,0,VALID,23.9957,VALID,119,VALID,1.51484,
2012-08-17, 00:47:04,VALID,999.682,VALID,0,VALID,75.7545,VALID,0,VALID,23.9177,VALID,116,VALID,1.31328,
2012-08-17, 00:48:04,VALID,999.667,VALID,0,VALID,76.0292,VALID,0,VALID,23.8183,VALID,121,VALID,0.888672,
2012-08-17, 00:49:04,VALID,999.637,VALID,0,VALID,76.1894,VALID,0,VALID,23.7597,VALID,131,VALID,0.709375,
2012-08-17, 00:50:04,VALID,999.642,VALID,0,VALID,76.3954,VALID,0,VALID,23.7012,VALID,111,VALID,1.40039,
2012-08-17, 00:51:04,VALID,999.631,VALID,0,VALID,77.1202,VALID,0,VALID,23.6604,VALID,93,VALID,1.97031,
2012-08-17, 00:52:04,VALID,999.614,VALID,0,VALID,78.1502,VALID,0,VALID,23.5451,VALID,99,VALID,1.41719,
2012-08-17, 00:53:04,VALID,999.58,VALID,0,VALID,78.608,VALID,0,VALID,23.428,VALID,111,VALID,1.66406,
2012-08-17, 00:54:04,VALID,999.596,VALID,0,VALID,79.0276,VALID,0,VALID,23.2915,VALID,114,VALID,1.59531,
2012-08-17, 00:55:04,VALID,999.545,VALID,0,VALID,79.432,VALID,0,VALID,23.2737,VALID,121,VALID,1.56289,
2012-08-17, 00:56:04,VALID,999.509,VALID,0,VALID,79.3099,VALID,0,VALID,23.2524,VALID,126,VALID,1.81055,
2012-08-17, 00:57:04,VALID,999.503,VALID,0,VALID,78.524,VALID,0,VALID,23.3695,VALID,135,VALID,2.10508,
2012-08-17, 00:58:05,VALID,999.507,VALID,0,VALID,77.7229,VALID,0,VALID,23.5256,VALID,135,VALID,2.07734,
2012-08-17, 00:59:05,VALID,999.483,VALID,0,VALID,77.1507,VALID,0,VALID,23.664,VALID,134,VALID,1.79375,
2012-08-17, 01:00:05,VALID,999.485,VALID,0,VALID,76.7463,VALID,0,VALID,23.7616,VALID,134,VALID,2.01289,
2012-08-17, 01:01:05,VALID,999.452,VALID,0,VALID,76.3801,VALID,0,VALID,23.8006,VALID,130,VALID,1.69492,
2012-08-17, 01:02:05,VALID,999.42,VALID,0,VALID,76.3496,VALID,0,VALID,23.7988,VALID,131,VALID,1.26797,
2012-08-17, 01:03:05,VALID,999.415,VALID,0,VALID,76.3038,VALID,0,VALID,23.8201,VALID,140,VALID,1.70898,
2012-08-17, 01:04:05,VALID,999.396,VALID,0,VALID,76.1283,VALID,0,VALID,23.8786,VALID,146,VALID,1.48203,
2012-08-17, 01:05:05,VALID,999.407,VALID,0,VALID,75.7011,VALID,0,VALID,23.9549,VALID,150,VALID,1.8293,
2012-08-17, 01:06:05,VALID,999.35,VALID,0,VALID,75.1518,VALID,0,VALID,24.0525,VALID,157,VALID,1.65156,
2012-08-17, 01:07:05,VALID,999.338,VALID,0,VALID,74.6711,VALID,0,VALID,24.1696,VALID,165,VALID,1.81445,
2012-08-17, 01:08:05,VALID,999.305,VALID,0,VALID,74.2515,VALID,0,VALID,24.269,VALID,160,VALID,1.4207,
2012-08-17, 01:09:05,VALID,999.302,VALID,0,VALID,73.9158,VALID,0,VALID,24.3275,VALID,154,VALID,1.45703,
2012-08-17, 01:10:05,VALID,999.277,VALID,0,VALID,73.8089,VALID,0,VALID,24.3275,VALID,153,VALID,1.0043,
2012-08-17, 01:11:05,VALID,999.26,VALID,0,VALID,73.87,VALID,0,VALID,24.308,VALID,152,VALID,0.869531,
2012-08-17, 01:12:05,VALID,999.243,VALID,0,VALID,73.9844,VALID,0,VALID,24.269,VALID,145,VALID,0.558203,
2012-08-17, 01:13:05,VALID,999.241,VALID,0,VALID,74.3125,VALID,0,VALID,24.1714,VALID,141,VALID,0.996094,
2012-08-17, 01:14:05,VALID,999.248,VALID,0,VALID,74.6635,VALID,0,VALID,24.0933,VALID,138,VALID,0.687891,
2012-08-17, 01:15:05,VALID,999.227,VALID,0,VALID,74.9229,VALID,0,VALID,24.0134,VALID,146,VALID,0.325391,
2012-08-17, 01:16:05,VALID,999.22,VALID,0,VALID,75.1746,VALID,0,VALID,23.9957,VALID,146,VALID,0.167187,
2012-08-17, 01:17:05,VALID,999.218,VALID,0,VALID,75.9834,VALID,0,VALID,23.8378,VALID,146,VALID,0.699219,
2012-08-17, 01:18:05,VALID,999.26,VALID,0,VALID,76.96,VALID,0,VALID,23.625,VALID,235,VALID,0.69375,
2012-08-17, 01:19:05,VALID,999.246,VALID,0,VALID,78.3791,VALID,0,VALID,23.3713,VALID,240,VALID,0.591797,
2012-08-17, 01:20:05,VALID,999.239,VALID,0,VALID,78.6995,VALID,0,VALID,23.1744,VALID,291,VALID,0.58125,
2012-08-17, 01:21:05,VALID,999.228,VALID,0,VALID,80.3018,VALID,0,VALID,22.9403,VALID,27,VALID,0.894531,
2012-08-17, 01:22:05,VALID,999.2,VALID,0,VALID,81.3775,VALID,0,VALID,22.8055,VALID,27,VALID,1.04609,
2012-08-17, 01:23:05,VALID,999.211,VALID,0,VALID,81.4538,VALID,0,VALID,22.6477,VALID,27,VALID,0.614062,
2012-08-17, 01:24:05,VALID,999.212,VALID,0,VALID,82.232,VALID,0,VALID,22.5111,VALID,4,VALID,0.889453,
2012-08-17, 01:25:05,VALID,999.188,VALID,0,VALID,82.9187,VALID,0,VALID,22.4916,VALID,1,VALID,0.864844,
2012-08-17, 01:26:05,VALID,999.209,VALID,0,VALID,82.789,VALID,0,VALID,22.5519,VALID,1,VALID,0.817578,
2012-08-17, 01:27:05,VALID,999.239,VALID,0,VALID,82.934,VALID,0,VALID,22.5501,VALID,1,VALID,0.848437,
2012-08-17, 01:28:05,VALID,999.239,VALID,0,VALID,83.1018,VALID,0,VALID,22.5306,VALID,1,VALID,0.714453,
2012-08-17, 01:29:05,VALID,999.256,VALID,0,VALID,82.026,VALID,0,VALID,22.4543,VALID,1,VALID,0.532031,
2012-08-17, 01:30:05,VALID,999.241,VALID,0,VALID,83.3994,VALID,0,VALID,22.2788,VALID,1,VALID,0.619531,
2012-08-17, 01:31:05,VALID,999.279,VALID,0,VALID,84.0098,VALID,0,VALID,22.2381,VALID,39,VALID,0.955469,
2012-08-17, 01:32:05,VALID,999.287,VALID,0,VALID,84.0555,VALID,0,VALID,22.1405,VALID,44,VALID,1.22539,
2012-08-17, 01:33:05,VALID,999.304,VALID,0,VALID,83.552,VALID,0,VALID,22.0447,VALID,76,VALID,1.89453,
2012-08-17, 01:34:05,VALID,999.295,VALID,0,VALID,84.8948,VALID,0,VALID,21.9065,VALID,79,VALID,1.74883,
2012-08-17, 01:35:05,VALID,999.3,VALID,0,VALID,87.4202,VALID,0,VALID,21.8285,VALID,78,VALID,1.29375,
2012-08-17, 01:36:05,VALID,999.296,VALID,0,VALID,88.2976,VALID,0,VALID,21.848,VALID,68,VALID,1.00547,
2012-08-17, 01:37:05,VALID,999.283,VALID,0,VALID,88.4349,VALID,0,VALID,21.809,VALID,68,VALID,0.575781,
2012-08-17, 01:38:05,VALID,999.279,VALID,0,VALID,88.4044,VALID,0,VALID,21.809,VALID,68,VALID,0.228516,
2012-08-17, 01:39:05,VALID,999.312,VALID,0,VALID,88.5951,VALID,0,VALID,21.7488,VALID,68,VALID,0.314063,
2012-08-17, 01:40:05,VALID,999.285,VALID,0,VALID,88.9919,VALID,0,VALID,21.7683,VALID,297,VALID,0.642969,
2012-08-17, 01:41:05,VALID,999.248,VALID,0,VALID,89.0987,VALID,0.104696,VALID,21.8073,VALID,293,VALID,0.784766,
2012-08-17, 01:42:05,VALID,999.255,VALID,0,VALID,88.9537,VALID,0,VALID,21.8675,VALID,293,VALID,0.410156,
2012-08-17, 01:43:05,VALID,999.271,VALID,0,VALID,88.8393,VALID,0,VALID,21.8853,VALID,293,VALID,0.334375,
2012-08-17, 01:44:05,VALID,999.223,VALID,0,VALID,88.3357,VALID,0,VALID,21.926,VALID,352,VALID,0.848047,
2012-08-17, 01:45:05,VALID,999.213,VALID,0,VALID,88.0229,VALID,0.104696,VALID,21.8073,VALID,36,VALID,1.75859,
2012-08-17, 01:46:05,VALID,999.198,VALID,0,VALID,88.1297,VALID,0,VALID,21.6708,VALID,36,VALID,1.25195,
2012-08-17, 01:47:05,VALID,999.186,VALID,0,VALID,89.236,VALID,0.104696,VALID,21.6123,VALID,49,VALID,1.56523,
2012-08-17, 01:48:05,VALID,999.214,VALID,0,VALID,89.6557,VALID,0.104696,VALID,21.5945,VALID,49,VALID,0.873828,
2012-08-17, 01:49:05,VALID,999.194,VALID,0,VALID,89.5489,VALID,0,VALID,21.4953,VALID,49,VALID,0.489453,
2012-08-17, 01:50:05,VALID,999.135,VALID,0,VALID,89.8388,VALID,0,VALID,21.458,VALID,49,VALID,0.6875,
2012-08-17, 01:51:05,VALID,999.154,VALID,0,VALID,90.4491,VALID,0,VALID,21.419,VALID,49,VALID,1.08047,
2012-08-17, 01:52:05,VALID,999.139,VALID,0,VALID,90.6704,VALID,0,VALID,21.419,VALID,72,VALID,0.984766,
2012-08-17, 01:53:05,VALID,999.123,VALID,0,VALID,90.6246,VALID,0,VALID,21.38,VALID,72,VALID,1.02617,
2012-08-17, 01:54:05,VALID,999.14,VALID,0,VALID,91.1129,VALID,0,VALID,21.3995,VALID,70,VALID,0.944141,
2012-08-17, 01:55:05,VALID,999.16,VALID,0,VALID,91.029,VALID,0,VALID,21.3995,VALID,70,VALID,0.844141,
2012-08-17, 01:56:05,VALID,999.164,VALID,0,VALID,91.0824,VALID,0,VALID,21.4011,VALID,70,VALID,1.06133,
2012-08-17, 01:57:05,VALID,999.116,VALID,0,VALID,91.1282,VALID,0,VALID,21.4206,VALID,70,VALID,0.59375,
2012-08-17, 01:58:05,VALID,999.114,VALID,0,VALID,90.9298,VALID,0,VALID,21.38,VALID,70,VALID,0.259766,
2012-08-17, 01:59:05,VALID,999.146,VALID,0,VALID,90.9298,VALID,0,VALID,21.341,VALID,70,VALID,0.0363281,
2012-08-17, 02:00:05,VALID,999.165,VALID,0,VALID,91.1434,VALID,0,VALID,21.3621,VALID,70,VALID,0.460547,
2012-08-17, 02:01:05,VALID,999.174,VALID,0,VALID,91.0214,VALID,0,VALID,21.3215,VALID,70,VALID,0.662891,
2012-08-17, 02:02:05,VALID,999.158,VALID,0,VALID,91.0595,VALID,0,VALID,21.2825,VALID,74,VALID,1.45664,
2012-08-17, 02:03:05,VALID,999.14,VALID,0,VALID,91.5326,VALID,0,VALID,21.3231,VALID,70,VALID,1.27305,
2012-08-17, 02:04:05,VALID,999.133,VALID,0,VALID,91.4791,VALID,0,VALID,21.2825,VALID,66,VALID,1.10352,
2012-08-17, 02:05:05,VALID,999.163,VALID,0,VALID,91.5554,VALID,0,VALID,21.2451,VALID,66,VALID,0.876172,
2012-08-17, 02:06:05,VALID,999.153,VALID,0,VALID,91.7614,VALID,0,VALID,21.2045,VALID,68,VALID,1.09414,
2012-08-17, 02:07:05,VALID,999.144,VALID,0,VALID,92.2803,VALID,0,VALID,21.2435,VALID,60,VALID,1.50586,
2012-08-17, 02:08:05,VALID,999.184,VALID,0,VALID,92.0895,VALID,0,VALID,21.2045,VALID,61,VALID,0.630859,
2012-08-17, 02:09:05,VALID,999.2,VALID,0,VALID,91.9217,VALID,0,VALID,21.185,VALID,61,VALID,0.471094,
2012-08-17, 02:10:05,VALID,999.231,VALID,0,VALID,91.8759,VALID,0,VALID,21.146,VALID,61,VALID,0.222266,
2012-08-17, 02:11:05,VALID,999.207,VALID,0,VALID,91.9217,VALID,0,VALID,21.107,VALID,44,VALID,0.504297,
2012-08-17, 02:12:05,VALID,999.267,VALID,0,VALID,92.1277,VALID,0,VALID,21.107,VALID,327,VALID,0.798437,
2012-08-17, 02:13:05,VALID,999.248,VALID,0,VALID,92.5015,VALID,0,VALID,21.1265,VALID,321,VALID,0.690234,
2012-08-17, 02:14:05,VALID,999.258,VALID,0,VALID,92.532,VALID,0,VALID,21.1265,VALID,13,VALID,0.864453,
2012-08-17, 02:15:05,VALID,999.244,VALID,0,VALID,92.5626,VALID,0,VALID,21.107,VALID,15,VALID,0.978516,
2012-08-17, 02:16:05,VALID,999.275,VALID,0,VALID,92.6541,VALID,0,VALID,21.1281,VALID,15,VALID,0.987109,
2012-08-17, 02:17:05,VALID,999.293,VALID,0,VALID,92.738,VALID,0,VALID,21.1265,VALID,15,VALID,0.98125,
2012-08-17, 02:18:05,VALID,999.257,VALID,0,VALID,92.7685,VALID,0,VALID,21.107,VALID,15,VALID,1.07539,
2012-08-17, 02:19:05,VALID,999.29,VALID,0,VALID,92.6999,VALID,0,VALID,21.107,VALID,15,VALID,1.13828,
2012-08-17, 02:20:05,VALID,999.29,VALID,0,VALID,92.7533,VALID,0,VALID,21.0875,VALID,15,VALID,1.1418,
2012-08-17, 02:21:05,VALID,999.328,VALID,0,VALID,92.9288,VALID,0,VALID,21.107,VALID,355,VALID,1.05117,
2012-08-17, 02:22:05,VALID,999.325,VALID,0,VALID,93.0966,VALID,0,VALID,21.1265,VALID,341,VALID,1.15078,
2012-08-17, 02:23:05,VALID,999.305,VALID,0,VALID,93.1271,VALID,0,VALID,21.146,VALID,342,VALID,1.10508,
2012-08-17, 02:24:05,VALID,999.322,VALID,0,VALID,93.1119,VALID,0,VALID,21.1866,VALID,347,VALID,1.12227,
2012-08-17, 02:25:05,VALID,999.3,VALID,0,VALID,93.0203,VALID,0,VALID,21.2061,VALID,336,VALID,0.910156,
2012-08-17, 02:26:05,VALID,999.341,VALID,0,VALID,92.9364,VALID,0,VALID,21.224,VALID,336,VALID,0.692578,
2012-08-17, 02:27:05,VALID,999.298,VALID,0,VALID,92.6617,VALID,0,VALID,21.2061,VALID,336,VALID,0.530859,
2012-08-17, 02:28:05,VALID,999.328,VALID,0,VALID,92.6083,VALID,0,VALID,21.2256,VALID,349,VALID,0.735547,
2012-08-17, 02:29:05,VALID,999.259,VALID,0,VALID,92.7151,VALID,0,VALID,21.2045,VALID,355,VALID,0.751953,
2012-08-17, 02:30:05,VALID,999.265,VALID,0,VALID,92.7151,VALID,0,VALID,21.224,VALID,355,VALID,0.589063,
2012-08-17, 02:31:05,VALID,999.261,VALID,0,VALID,92.6541,VALID,0,VALID,21.2646,VALID,355,VALID,0.475,
2012-08-17, 02:32:05,VALID,999.265,VALID,0,VALID,92.5168,VALID,0,VALID,21.2435,VALID,355,VALID,0.396094,
2012-08-17, 02:33:05,VALID,999.233,VALID,0,VALID,92.5397,VALID,0,VALID,21.2435,VALID,355,VALID,0.38125,
2012-08-17, 02:34:05,VALID,999.228,VALID,0,VALID,92.5168,VALID,0,VALID,21.263,VALID,355,VALID,0.424609,
2012-08-17, 02:35:05,VALID,999.205,VALID,0,VALID,92.4939,VALID,0,VALID,21.2435,VALID,355,VALID,0.482812,
2012-08-17, 02:36:05,VALID,999.237,VALID,0,VALID,92.3947,VALID,0,VALID,21.224,VALID,355,VALID,0.677734,
2012-08-17, 02:37:05,VALID,999.212,VALID,0,VALID,92.2726,VALID,0,VALID,21.224,VALID,355,VALID,0.745703,
2012-08-17, 02:38:05,VALID,999.197,VALID,0,VALID,92.2879,VALID,0,VALID,21.2045,VALID,355,VALID,0.403125,
2012-08-17, 02:39:05,VALID,999.19,VALID,0,VALID,92.2879,VALID,0,VALID,21.224,VALID,355,VALID,0.598437,
2012-08-17, 02:40:05,VALID,999.199,VALID,0,VALID,92.2803,VALID,0,VALID,21.2841,VALID,355,VALID,0.562109,
2012-08-17, 02:41:05,VALID,999.174,VALID,0,VALID,92.1811,VALID,0,VALID,21.263,VALID,355,VALID,0.821484,
2012-08-17, 02:42:05,VALID,999.17,VALID,0,VALID,92.1124,VALID,0,VALID,21.2435,VALID,10,VALID,1.01289,
2012-08-17, 02:43:05,VALID,999.153,VALID,0,VALID,91.8301,VALID,0,VALID,21.2435,VALID,13,VALID,0.993359,
2012-08-17, 02:44:05,VALID,999.181,VALID,0,VALID,91.3418,VALID,0,VALID,21.1866,VALID,16,VALID,0.669531,
2012-08-17, 02:45:05,VALID,999.143,VALID,0,VALID,91.4791,VALID,0,VALID,21.1281,VALID,14,VALID,0.546875,
2012-08-17, 02:46:05,VALID,999.151,VALID,0,VALID,91.7309,VALID,0,VALID,21.1086,VALID,14,VALID,0.774609,
2012-08-17, 02:47:05,VALID,999.134,VALID,0,VALID,91.7538,VALID,0,VALID,21.0875,VALID,14,VALID,0.847266,
2012-08-17, 02:48:05,VALID,999.125,VALID,0,VALID,92.2268,VALID,0,VALID,21.1281,VALID,333,VALID,0.70625,
2012-08-17, 02:49:05,VALID,999.102,VALID,0,VALID,92.2192,VALID,0,VALID,21.146,VALID,331,VALID,0.630078,
2012-08-17, 02:50:05,VALID,999.086,VALID,0,VALID,92.4023,VALID,0,VALID,21.2045,VALID,331,VALID,0.881641,
2012-08-17, 02:51:05,VALID,999.082,VALID,0,VALID,92.3718,VALID,0,VALID,21.2646,VALID,331,VALID,0.386719,
2012-08-17, 02:52:05,VALID,999.094,VALID,0,VALID,92.0666,VALID,0,VALID,21.2646,VALID,331,VALID,0.139453,
2012-08-17, 02:53:05,VALID,999.046,VALID,0,VALID,92.0132,VALID,0,VALID,21.2646,VALID,331,VALID,0,
2012-08-17, 02:54:05,VALID,999.05,VALID,0,VALID,92.0361,VALID,0,VALID,21.2646,VALID,331,VALID,0.380859,
2012-08-17, 02:55:05,VALID,999.06,VALID,0,VALID,91.8759,VALID,0,VALID,21.2451,VALID,331,VALID,0.469922,
2012-08-17, 02:56:05,VALID,999.058,VALID,0,VALID,91.8683,VALID,0,VALID,21.2451,VALID,331,VALID,0.372656,
2012-08-17, 02:57:05,VALID,999.067,VALID,0,VALID,91.9522,VALID,0,VALID,21.2045,VALID,331,VALID,0.65625,
2012-08-17, 02:58:05,VALID,999.067,VALID,0,VALID,91.708,VALID,0,VALID,21.1655,VALID,38,VALID,0.673047,
2012-08-17, 02:59:05,VALID,999.077,VALID,0,VALID,91.2579,VALID,0,VALID,21.107,VALID,74,VALID,1.32656,
2012-08-17, 03:00:05,VALID,999.081,VALID,0,VALID,90.5331,VALID,0,VALID,20.9916,VALID,83,VALID,1.58438,
2012-08-17, 03:01:05,VALID,999.108,VALID,0,VALID,90.8459,VALID,0,VALID,20.8925,VALID,85,VALID,2.01523,
2012-08-17, 03:02:05,VALID,999.135,VALID,0,VALID,91.586,VALID,0,VALID,20.8925,VALID,94,VALID,1.6582,
2012-08-17, 03:03:05,VALID,999.091,VALID,0,VALID,92.0514,VALID,0,VALID,20.8925,VALID,69,VALID,1.38867,
2012-08-17, 03:04:05,VALID,999.117,VALID,0,VALID,92.2421,VALID,0,VALID,20.9315,VALID,65,VALID,1.05352,
2012-08-17, 03:05:05,VALID,999.119,VALID,0,VALID,92.3489,VALID,0,VALID,20.99,VALID,94,VALID,1.43633,
2012-08-17, 03:06:05,VALID,999.066,VALID,0,VALID,92.4176,VALID,0,VALID,21.0501,VALID,94,VALID,0.371875,
2012-08-17, 03:07:05,VALID,999.079,VALID,0,VALID,92.3184,VALID,0,VALID,21.0485,VALID,94,VALID,0.212109,
2012-08-17, 03:08:05,VALID,999.003,VALID,0,VALID,92.2574,VALID,0,VALID,21.0696,VALID,76,VALID,0.803125,
2012-08-17, 03:09:05,VALID,999.061,VALID,0,VALID,92.1963,VALID,0,VALID,21.0501,VALID,56,VALID,0.857813,
2012-08-17, 03:10:05,VALID,999.075,VALID,0,VALID,92.2803,VALID,0,VALID,21.0501,VALID,56,VALID,0.534375,
2012-08-17, 03:11:05,VALID,999.074,VALID,0,VALID,92.3031,VALID,0,VALID,21.0485,VALID,56,VALID,0.207813,
2012-08-17, 03:12:05,VALID,999.058,VALID,0,VALID,92.4405,VALID,0,VALID,21.0891,VALID,56,VALID,0.75,
2012-08-17, 03:13:05,VALID,999.017,VALID,0,VALID,92.3566,VALID,0,VALID,21.1086,VALID,22,VALID,1.28281,
2012-08-17, 03:14:05,VALID,999.063,VALID,0,VALID,92.0361,VALID,0,VALID,21.0891,VALID,22,VALID,0.781641,
2012-08-17, 03:15:05,VALID,999.02,VALID,0,VALID,91.8377,VALID,0,VALID,21.0306,VALID,22,VALID,0.934766,
2012-08-17, 03:16:05,VALID,999.018,VALID,0,VALID,91.8911,VALID,0,VALID,21.0095,VALID,22,VALID,1.22266,
2012-08-17, 03:17:05,VALID,999.055,VALID,0,VALID,91.7462,VALID,0,VALID,20.951,VALID,22,VALID,0.828906,
2012-08-17, 03:18:05,VALID,999.035,VALID,0,VALID,91.3723,VALID,0,VALID,20.8941,VALID,22,VALID,1.11602,
2012-08-17, 03:19:05,VALID,999.07,VALID,0,VALID,91.5631,VALID,0,VALID,20.8145,VALID,22,VALID,0.936328,
2012-08-17, 03:20:05,VALID,999.12,VALID,0,VALID,91.7996,VALID,0,VALID,20.8161,VALID,22,VALID,0.723828,
2012-08-17, 03:21:05,VALID,999.075,VALID,0,VALID,92.1887,VALID,0,VALID,20.8161,VALID,21,VALID,0.990625,
2012-08-17, 03:22:05,VALID,999.093,VALID,0,VALID,92.4634,VALID,0,VALID,20.8145,VALID,5,VALID,0.832422,
2012-08-17, 03:23:05,VALID,999.128,VALID,0,VALID,92.5015,VALID,0,VALID,20.834,VALID,5,VALID,0.355078,
2012-08-17, 03:24:05,VALID,999.056,VALID,0,VALID,92.7685,VALID,0,VALID,20.8941,VALID,18,VALID,1.56875,
2012-08-17, 03:25:05,VALID,999.059,VALID,0,VALID,92.7304,VALID,0,VALID,20.9331,VALID,18,VALID,1.64922,
2012-08-17, 03:26:05,VALID,999.105,VALID,0,VALID,92.41,VALID,0,VALID,20.9331,VALID,46,VALID,1.90547,
2012-08-17, 03:27:05,VALID,999.104,VALID,0,VALID,92.5778,VALID,0,VALID,20.912,VALID,56,VALID,1.62812,
2012-08-17, 03:28:05,VALID,999.079,VALID,0,VALID,92.6541,VALID,0,VALID,20.912,VALID,56,VALID,1.09258,
2012-08-17, 03:29:05,VALID,999.01,VALID,0,VALID,92.5091,VALID,0,VALID,20.873,VALID,19,VALID,1.75352,
2012-08-17, 03:30:05,VALID,999.066,VALID,0,VALID,92.5702,VALID,0,VALID,20.8551,VALID,26,VALID,1.15781,
2012-08-17, 03:31:05,VALID,999.154,VALID,0,VALID,92.738,VALID,0,VALID,20.8145,VALID,103,VALID,0.75625,
2012-08-17, 03:32:05,VALID,999.145,VALID,0,VALID,92.9745,VALID,0,VALID,20.834,VALID,112,VALID,0.539844,
2012-08-17, 03:33:05,VALID,999.136,VALID,0,VALID,93.2263,VALID,0,VALID,20.8925,VALID,112,VALID,0.405469,
2012-08-17, 03:34:05,VALID,999.119,VALID,0,VALID,93.3408,VALID,0,VALID,20.9331,VALID,112,VALID,0.584375,
2012-08-17, 03:35:05,VALID,999.149,VALID,0,VALID,93.3637,VALID,0,VALID,20.9526,VALID,109,VALID,0.39375,
2012-08-17, 03:36:05,VALID,999.136,VALID,0,VALID,93.295,VALID,0,VALID,20.9721,VALID,50,VALID,0.9125,
2012-08-17, 03:37:05,VALID,999.161,VALID,0,VALID,93.2187,VALID,0,VALID,20.9721,VALID,50,VALID,0.718359,
2012-08-17, 03:38:05,VALID,999.192,VALID,0,VALID,93.1043,VALID,0,VALID,20.9916,VALID,50,VALID,0.566797,
2012-08-17, 03:39:05,VALID,999.197,VALID,0,VALID,92.8601,VALID,0,VALID,20.9721,VALID,50,VALID,0.535937,
2012-08-17, 03:40:05,VALID,999.198,VALID,0,VALID,92.7075,VALID,0,VALID,20.9331,VALID,50,VALID,0.595312,
2012-08-17, 03:41:05,VALID,999.199,VALID,0,VALID,92.822,VALID,0,VALID,20.9331,VALID,50,VALID,0.656641,
2012-08-17, 03:42:04,VALID,999.177,VALID,0,VALID,92.9745,VALID,0,VALID,20.9331,VALID,50,VALID,0.571484,
2012-08-17, 03:43:04,VALID,999.167,VALID,0,VALID,93.0737,VALID,0,VALID,20.9331,VALID,50,VALID,0.439453,
2012-08-17, 03:44:04,VALID,999.171,VALID,0,VALID,93.1729,VALID,0,VALID,20.9136,VALID,50,VALID,0.337891,
2012-08-17, 03:45:04,VALID,999.137,VALID,0,VALID,93.2797,VALID,0,VALID,20.912,VALID,19,VALID,0.985156,
2012-08-17, 03:46:04,VALID,999.176,VALID,0,VALID,93.3408,VALID,0,VALID,20.9331,VALID,19,VALID,0.849219,